This is the latest recevied weather packets stored in our database for station/object K5BOU. If no packets are shown the sender has not sent any weather packets the latest 10 day(s).
| Time | Temp. | Humidity | Pressure | Rain* | Wind** | Luminosity | Snow |
|---|---|---|---|---|---|---|---|
| 1788119329 | 35.56° C | 55% | 1013 hPa | 0 mm | - | 691 W/m² | - |
| 1788119023 | 36.11° C | 55% | 1013.2 hPa | 0 mm | - | 253 W/m² | - |
| 1788118718 | 36.67° C | 57% | 1013.1 hPa | 0 mm | - | 678 W/m² | - |
| 1788118412 | 36.11° C | 56% | 1013.4 hPa | 0 mm | - | 679 W/m² | - |
| 1788118108 | 36.11° C | 56% | 1013.4 hPa | 0 mm | - | 694 W/m² | - |
| 1788117807 | 36.67° C | 57% | 1013.4 hPa | 0 mm | - | 706 W/m² | - |
| 1788117503 | 36.11° C | 55% | 1013.7 hPa | 0 mm | - | 703 W/m² | - |
| 1788117202 | 36.11° C | 57% | 1013.5 hPa | 0 mm | - | 705 W/m² | - |
| 1788116899 | 35.56° C | 58% | 1013.8 hPa | 0 mm | - | 707 W/m² | - |
| 1788116598 | 35.56° C | 60% | 1013.8 hPa | 0 mm | - | 698 W/m² | - |
| 1788116297 | 35.56° C | 58% | 1013.9 hPa | 0 mm | - | 699 W/m² | - |
| 1788115993 | 36.67° C | 56% | 1014 hPa | 0 mm | - | 713 W/m² | - |
| 1788115688 | 35.56° C | 55% | 1014.3 hPa | 0 mm | - | 718 W/m² | - |
| 1788115398 | 35.56° C | 57% | 1014 hPa | 0 mm | - | 721 W/m² | - |
| 1788115082 | 35° C | 61% | 1014.1 hPa | 0 mm | - | 722 W/m² | - |
| 1788114781 | 35° C | 63% | 1014.3 hPa | 0 mm | - | 743 W/m² | - |
| 1788114477 | 35.56° C | 59% | 1014.1 hPa | 0 mm | - | 745 W/m² | - |
| 1788114173 | 33.89° C | 63% | 1014.5 hPa | 0 mm | - | 763 W/m² | - |
| 1788113869 | 33.89° C | 62% | 1014.3 hPa | 0 mm | - | 153 W/m² | - |
| 1788113564 | 34.44° C | 62% | 1014.5 hPa | 0 mm | - | 597 W/m² | - |
| 1788113263 | 35° C | 60% | 1014.8 hPa | 0 mm | - | 757 W/m² | - |
| 1788112958 | 35° C | 60% | 1014.6 hPa | 0 mm | - | 749 W/m² | - |
| 1788112652 | 34.44° C | 63% | 1014.8 hPa | 0 mm | - | 768 W/m² | - |
| 1788112347 | 33.89° C | 67% | 1014.9 hPa | 0 mm | - | 740 W/m² | - |
| 1788112041 | 33.33° C | 67% | 1014.8 hPa | 0 mm | - | 731 W/m² | - |
* Rain latest hour (hover to see other rain measurements)
** Current wind speed in m/s (hover to see current wind gust speed)